Dewpoint
71 72 71 72 73 73 72 73 73 73 73 73 73 73 73 74 72 72 74 74 74 74 74 75 75 75 73 74 73 75 77 76 76 77 77 77 77 77 76 77 76 74 75 75 74 74 75 75 75 75 76 75 74 73 72 72 74 73 74 74 72 74 74 73 71 71 73 73 71 69 69 72 70 73 72 70 70 72 74 74 76 73 71 71 70
72 73 72 72 71 71 71 72 73 73 72 72 72 72 73 74 74 74 73 74 74 73 75 74 75 74 74 74 75 75 77 78 75 76 76 76 76 73 75 77 77 76 75 76 75 74 75 75 74 74 75 74 73 71 71 70 70 70 72 72 71 73 75 73 72 72 72 72 72 72 71 73 71 74 73 72 71 74 72 73 72 72 72 71 70
72 73 73 72 72 71 71 72 72 72 71 70 70 70 71 72 74 73 72 72 74 74 74 73 75 76 75 75 76 76 77 76 76 76 76 77 76 74 73 75 75 75 74 75 74 75 74 75 73 73 71 72 73 71 70 71 71 71 71 72 73 72 74 75 74 72 71 71 73 70 70 72 72 71 72 72 75 75 76 73 69 68 70 72 70
72 73 73 73 72 71 72 71 70 70 70 70 70 70 70 71 73 72 71 70 71 74 74 74 75 77 75 76 76 76 76 75 75 76 77 77 76 77 76 76 75 75 74 74 73 74 74 74 73 72 73 74 74 74 73 72 72 73 73 74 75 74 74 75 76 74 72 71 73 73 71 71 71 72 72 73 72 73 72 73 72 71 70 67 68
73 73 73 72 73 72 70 70 70 70 70 69 69 69 70 70 72 72 71 70 71 72 74 75 75 76 73 74 75 76 75 76 76 75 75 76 76 75 76 76 76 76 75 76 75 75 75 74 73 73 74 74 73 72 72 73 73 72 72 73 73 73 73 74 75 75 74 73 72 74 75 74 73 74 74 72 71 73 75 76 73 73 74 69 65
74 72 73 72 73 74 72 71 71 70 70 69 69 69 70 70 70 71 71 71 72 71 72 73 73 75 75 74 74 75 76 76 76 76 74 75 76 75 75 76 75 76 75 75 75 75 74 75 74 74 74 73 72 72 74 74 74 72 72 73 73 73 74 74 75 75 75 73 74 72 74 72 72 73 74 73 71 70 72 72 74 75 74 71 68
73 74 74 73 73 73 73 73 72 70 71 70 70 70 70 70 70 70 71 71 71 70 70 72 73 73 74 74 73 74 75 75 76 77 76 76 76 76 74 75 75 75 75 74 73 74 74 74 75 74 74 74 73 72 73 74 73 73 74 74 73 73 72 72 73 73 73 72 71 72 72 72 74 72 73 76 75 73 72 71 71 71 75 75 73
73 73 74 74 74 73 73 73 72 73 74 74 73 71 70 70 71 71 71 71 70 70 69 70 71 71 72 73 73 74 75 74 76 77 76 75 75 75 75 75 74 74 74 75 74 72 73 73 71 72 74 75 75 74 74 73 74 73 73 75 75 75 73 71 72 72 71 70 70 70 70 72 73 73 73 75 74 74 74 71 70 71 72 74 75
73 72 72 72 72 73 73 74 75 75 75 75 75 74 72 72 72 72 72 71 69 70 70 69 69 70 70 71 72 72 70 71 72 74 75 75 75 73 74 74 74 74 75 73 73 74 74 72 71 71 74 76 77 76 75 75 73 73 75 75 75 74 74 73 72 73 72 71 72 72 72 72 73 73 71 71 71 70 72 72 72 72 72 72 73
72 71 71 72 72 72 72 73 74 74 75 75 75 75 73 72 71 71 71 71 72 72 72 71 70 69 69 71 71 70 70 70 74 72 73 73 74 72 73 74 75 75 75 75 73 73 72 72 70 74 76 76 76 75 74 74 74 73 74 75 75 75 74 73 73 73 72 72 70 70 69 68 67 69 69 70 71 73 72 73 72 72 73 73 74
71 71 71 72 72 72 72 71 72 73 73 73 73 73 73 72 72 73 72 72 72 73 71 71 70 69 69 69 69 68 68 68 71 67 66 68 73 73 74 75 76 76 74 75 75 73 72 72 73 73 76 76 76 75 75 74 73 73 73 74 75 75 74 73 72 73 72 71 71 71 69 70 70 70 69 67 68 70 70 72 71 72 72 71 69
70 71 71 71 72 71 71 71 71 72 73 72 71 72 72 72 73 73 72 71 73 71 70 70 71 70 69 69 68 67 68 71 66 65 65 65 69 73 71 72 72 73 74 73 73 73 73 71 71 70 71 73 73 75 77 75 73 73 72 72 73 74 74 75 74 73 73 72 71 71 71 70 71 72 68 67 70 72 73 73 73 73 72 71 71
69 70 71 71 71 71 71 71 71 72 72 71 69 69 71 72 72 72 72 72 71 72 72 71 71 70 69 70 68 68 67 67 64 64 64 63 64 69 70 71 71 70 72 73 73 74 74 73 73 71 70 74 74 73 75 76 75 73 73 73 74 72 69 69 70 75 73 74 73 72 71 72 72 72 71 73 74 73 73 71 73 73 73 72 71
66 66 67 68 70 71 71 71 71 71 71 71 70 69 70 71 73 74 73 74 73 72 71 71 71 73 72 72 72 70 69 69 64 62 61 62 62 65 71 70 70 71 72 72 72 72 74 74 74 73 73 74 75 74 74 75 76 76 76 76 74 74 74 70 68 69 71 73 73 73 74 75 74 75 75 76 75 73 72 72 73 72 72 72 74
64 65 65 66 67 67 67 68 69 70 71 71 71 71 71 72 72 72 72 71 71 72 71 71 71 71 70 70 70 69 67 67 63 61 60 59 60 64 70 70 70 71 72 73 74 73 73 73 74 73 74 74 75 75 74 74 74 74 74 73 72 73 73 72 71 71 72 71 72 73 73 73 74 75 76 76 75 75 75 74 74 73 74 74 73
62 63 63 64 65 66 67 67 67 68 68 70 70 69 70 71 71 73 73 73 72 72 72 72 71 72 72 71 70 70 69 65 64 62 60 59 60 67 70 71 71 70 71 72 73 74 74 74 75 74 74 75 74 72 73 74 73 73 73 73 73 72 71 73 68 69 71 70 71 71 70 70 67 74 75 72 72 74 75 75 75 74 73 72 71
61 62 62 63 64 64 65 66 66 67 67 66 66 67 67 69 71 72 72 73 73 74 73 72 73 72 72 72 72 72 72 67 62 61 60 59 62 70 71 71 72 72 71 72 73 73 73 74 74 73 72 74 73 66 67 72 72 72 72 72 71 70 70 70 67 64 64 63 63 64 63 63 63 62 62 62 69 71 72 71 71 72 71 71 69
60 60 61 62 63 64 64 64 65 65 66 66 67 68 68 69 68 70 71 72 72 72 72 72 72 72 72 72 72 72 72 70 63 60 58 59 65 71 72 72 72 72 72 73 73 73 73 73 73 73 73 74 68 65 65 71 73 73 72 71 71 70 71 70 68 69 62 61 61 61 61 62 62 62 62 62 61 65 71 70 71 71 71 71 69
59 59 60 61 62 63 64 63 64 64 65 66 67 67 68 68 69 70 70 70 70 72 71 71 71 72 72 72 73 72 72 69 62 59 57 58 65 72 72 72 72 72 71 71 71 71 72 71 71 71 71 71 62 61 63 70 71 72 72 72 70 71 71 71 70 70 71 71 74 73 72 68 69 71 72 65 64 68 71 72 71 71 70 69 69
59 60 60 60 60 61 61 63 63 63 64 64 65 66 68 68 68 69 69 70 70 70 71 70 69 70 70 70 70 71 72 71 65 55 54 55 59 72 73 72 71 71 72 72 72 73 73 73 72 68 63 62 58 57 57 59 69 71 71 70 70 71 71 71 71 70 71 71 71 72 73 74 74 75 75 75 73 72 72 71 70 70 71 70 70
59 60 60 59 59 60 59 61 61 62 62 64 65 65 66 68 68 68 69 70 70 70 69 69 70 71 71 71 71 71 71 70 65 54 53 55 58 64 72 72 72 72 72 71 70 70 70 71 71 64 58 56 55 54 54 56 60 70 72 72 71 73 68 69 70 71 70 72 72 71 71 72 72 72 72 72 71 71 71 71 70 69 69 68 68
58 59 59 59 59 60 60 60 60 60 62 63 63 64 65 65 66 67 69 69 69 69 69 69 70 70 70 71 71 72 70 68 69 57 54 54 57 61 69 70 69 71 71 71 71 72 72 72 72 64 57 57 56 54 52 54 58 67 71 63 60 61 68 69 69 70 70 70 70 70 71 70 70 71 70 70 69 71 69 70 71 70 69 69 70
58 58 58 58 58 58 58 59 59 59 60 61 62 62 64 64 65 65 66 66 67 67 68 69 69 69 68 70 71 71 71 71 68 68 56 52 52 53 56 65 60 69 69 70 70 70 71 71 71 67 57 53 51 51 51 51 56 66 60 58 57 58 63 67 70 70 70 70 70 70 70 70 70 70 70 70 69 71 70 71 71 72 73 72 72
57 57 57 57 56 57 57 57 58 59 60 61 62 62 62 63 62 63 65 65 65 65 65 66 67 66 65 65 67 69 71 70 66 64 64 56 55 54 53 55 59 67 68 68 68 68 69 69 68 56 51 48 49 52 53 55 63 55 52 54 56 60 66 69 70 70 70 69 70 70 71 71 71 71 71 72 71 73 73 72 73 72 72 72 73
54 54 55 56 56 55 55 56 56 57 57 59 59 59 60 62 61 62 62 62 63 63 64 64 64 65 65 65 66 68 69 70 69 67 65 63 59 57 57 57 56 57 68 67 69 68 62 54 52 52 53 52 52 53 56 60 58 57 56 56 63 68 69 69 70 70 70 70 70 70 71 71 71 71 73 73 74 73 73 71 71 72 72 73 73
55 56 55 55 55 54 53 51 52 54 55 56 57 56 57 58 60 60 60 59 60 62 62 63 63 63 64 64 65 65 66 67 66 66 66 65 65 63 61 62 67 65 66 66 64 59 56 54 53 54 56 60 69 69 68 69 64 61 60 64 70 68 68 68 69 70 69 69 69 69 70 70 70 71 72 72 72 72 72 72 71 71 72 72 72
56 55 55 53 54 55 54 51 50 51 53 52 54 55 56 56 57 58 57 57 58 59 59 60 61 61 62 62 63 64 64 65 64 64 66 66 66 66 66 66 65 65 67 67 66 66 66 65 64 60 59 60 61 63 64 67 69 68 67 66 67 67 68 70 69 69 69 68 68 69 69 69 70 70 70 71 71 72 72 71 70 70 70 70 70
54 55 53 54 53 53 53 55 54 51 52 53 52 53 53 53 53 54 55 54 54 54 55 57 57 58 59 61 62 63 62 62 62 61 62 61 62 63 65 66 65 65 65 65 64 65 65 66 64 69 68 66 67 66 66 67 67 66 66 66 68 68 69 70 70 70 70 69 68 69 69 70 70 70 69 69 69 69 71 71 70 70 70 70 70
56 55 54 54 54 55 54 53 53 51 52 53 53 55 52 52 54 55 55 55 54 53 54 54 55 55 57 60 61 61 61 60 62 51 57 50 55 58 62 64 63 64 62 53 62 66 66 64 64 63 64 64 64 64 64 64 65 66 67 68 67 69 68 69 67 68 68 69 69 69 69 69 69 69 69 69 70 70 72 72 72 71 71 71 70
53 52 53 52 52 52 53 51 52 52 50 50 52 53 56 53 53 54 55 56 53 49 47 55 55 56 58 60 61 59 59 60 51 45 44 43 43 43 45 43 42 51 53 51 57 64 63 63 63 63 63 64 63 62 63 64 65 65 65 63 66 65 65 66 65 65 66 66 66 66 67 68 68 68 69 68 69 69 70 68 71 71 70 69 69
52 50 52 51 52 52 51 51 53 54 53 52 52 53 51 59 47 48 51 54 50 45 45 45 46 49 56 56 57 56 54 50 45 44 42 42 41 41 40 40 40 41 42 56 64 62 62 61 60 59 58 58 56 56 58 59 60 62 62 65 65 65 64 64 63 64 64 64 64 65 65 66 66 66 66 67 67 68 69 70 70 70 70 69 69
51 50 50 51 52 53 50 52 52 52 52 53 53 53 54 54 55 50 50 51 50 47 46 46 46 46 47 49 55 58 55 49 43 42 42 41 41 40 40 40 40 41 42 43 63 61 60 60 58 56 56 54 54 55 53 53 55 56 57 59 60 61 63 63 62 62 63 63 63 63 63 64 63 64 64 65 65 66 66 67 68 68 68 69 69
50 50 50 50 50 52 50 51 51 51 51 52 51 52 51 51 51 52 58 50 50 50 49 48 47 47 48 47 45 46 45 43 43 43 41 41 41 41 40 40 41 41 43 60 62 60 58 57 55 56 55 54 54 53 54 54 54 55 56 57 57 58 61 61 61 62 62 61 61 62 62 62 62 62 62 63 63 64 64 65 66 66 67 67 66
50 50 50 50 50 50 50 51 50 51 51 51 51 50 51 51 51 52 52 52 54 55 48 48 48 48 48 47 45 44 44 45 44 43 42 42 42 42 41 52 40 39 50 63 63 60 57 55 55 55 55 55 53 53 54 54 55 56 56 56 57 58 59 59 60 59 59 59 60 60 61 60 61 61 61 61 62 62 63 63 64 65 65 66 65
48 48 48 49 49 49 49 49 49 50 50 50 49 49 50 52 53 52 52 51 51 52 53 55 51 49 54 52 46 45 46 45 46 44 43 42 43 41 41 61 62 62 63 61 60 57 56 55 55 55 54 54 54 54 54 55 54 54 54 56 56 56 56 56 55 57 56 56 57 58 58 59 60 59 59 60 60 60 61 61 62 63 64 64 64
47 46 47 47 48 48 46 47 47 49 49 49 50 48 49 51 51 51 51 52 51 51 51 52 53 52 51 50 48 47 46 45 45 44 43 42 41 44 60 60 59 58 59 58 58 57 57 55 55 55 54 54 55 54 54 53 54 54 54 55 54 54 54 54 54 54 55 55 56 56 56 57 57 57 57 57 58 58 58 58 58 59 60 60 60
45 45 46 46 47 47 47 47 48 48 47 47 48 48 49 50 51 51 50 49 50 50 51 53 53 53 53 55 52 49 47 46 46 46 46 44 41 52 59 59 57 57 57 56 57 56 55 55 55 55 55 54 54 53 53 54 55 56 55 55 55 54 53 53 53 55 54 53 53 55 55 54 55 55 55 55 55 55 55 55 55 55 55 55 56
46 46 46 48 49 48 48 48 46 46 48 47 48 49 48 49 49 49 48 47 48 49 49 50 51 51 51 52 53 53 52 49 48 50 44 40 51 59 59 59 58 57 56 56 57 56 55 55 55 54 55 54 54 54 53 54 53 53 53 55 54 54 53 53 54 54 54 52 52 53 53 52 52 53 53 53 53 53 52 52 52 52 54 55 55
45 45 46 46 46 46 45 45 46 45 45 46 47 46 46 46 45 44 46 47 48 48 48 48 49 49 49 51 52 53 52 51 51 52 53 55 56 57 57 57 57 56 56 57 57 56 55 54 53 55 53 53 53 53 53 53 52 52 53 52 52 52 52 51 53 53 51 51 51 51 51 51 51 52 52 51 50 51 51 51 51 52 52 53 53
44 43 43 45 43 43 44 45 44 44 44 45 43 44 44 44 43 44 45 46 47 47 47 47 48 49 50 51 51 50 50 50 50 50 53 54 55 57 57 57 57 57 57 57 56 55 54 53 53 52 53 54 52 52 52 53 52 51 51 50 50 50 51 51 50 50 50 51 50 50 50 50 50 50 49 49 49 49 50 50 51 52 52 52 52
43 42 44 42 42 42 43 42 43 43 43 43 44 43 43 44 44 46 46 47 47 47 47 48 48 48 49 50 47 47 51 49 49 50 52 53 54 55 56 56 57 57 57 57 55 54 53 52 52 52 51 51 51 51 50 50 50 49 50 49 49 49 49 50 50 50 49 49 49 49 50 49 49 49 48 48 49 49 49 50 50 50 50 51 52
42 42 43 41 42 42 42 43 44 44 45 45 45 44 45 46 46 47 47 47 46 46 45 45 46 47 46 46 46 44 49 49 50 51 52 52 54 54 55 56 56 57 56 54 53 52 52 52 51 50 49 49 49 49 49 49 49 48 48 48 49 48 48 48 49 49 49 49 49 49 50 48 48 48 48 48 48 47 48 48 49 49 49 50 51
44 42 41 41 42 42 43 43 44 44 45 46 46 46 47 47 46 47 45 45 45 45 45 45 45 47 50 48 48 47 49 49 49 50 51 52 53 54 54 54 54 53 52 51 51 51 50 49 49 48 48 48 48 48 47 47 48 48 47 47 47 47 47 47 47 47 47 47 47 48 48 48 47 48 48 48 47 47 47 47 47 47 48 49 50
41 41 41 41 43 43 44 44 44 45 44 45 45 45 45 45 44 44 43 43 43 44 44 44 47 48 47 46 47 46 47 48 48 49 50 51 52 51 51 50 50 50 50 49 49 49 48 47 47 47 47 47 47 48 47 47 46 46 46 46 46 46 46 46 46 47 46 45 46 46 46 47 47 47 47 48 47 47 47 48 47 47 47 47 48
41 41 39 41 42 42 42 43 43 43 43 43 43 41 43 42 42 42 42 42 43 44 43 45 45 45 46 45 45 45 46 46 48 49 49 48 49 49 48 49 49 49 49 49 49 48 48 47 46 46 46 46 46 46 46 46 46 45 45 45 46 44 45 46 45 45 45 45 44 44 44 44 45 45 46 46 46 47 46 47 47 47 47 47 47
39 39 39 40 40 40 40 41 43 41 42 40 40 39 39 40 41 42 42 43 43 43 43 42 42 43 43 43 43 45 45 45 46 47 47 48 48 48 48 49 49 49 48 47 46 47 46 46 46 45 45 45 45 44 44 45 44 45 45 45 44 44 44 44 44 44 44 44 43 43 43 43 43 43 45 44 44 44 45 46 47 46 46 47 47
39 39 39 38 38 39 41 41 40 41 39 38 38 39 38 39 40 41 42 41 41 41 40 40 41 41 42 43 43 43 44 44 44 45 46 47 47 47 46 46 46 46 46 46 46 45 45 44 44 44 43 43 44 44 43 43 43 43 43 43 43 44 44 43 43 43 42 43 43 42 42 42 42 43 43 44 44 44 45 45 46 47 47 47 47
37 37 37 38 38 37 37 38 37 38 37 37 37 38 39 40 39 39 39 38 38 38 39 40 40 41 43 41 42 43 45 45 46 46 45 45 46 46 46 46 45 44 44 44 44 44 43 43 43 43 43 43 43 43 43 42 43 43 43 43 43 43 43 42 42 41 42 42 41 41 41 41 41 42 43 43 44 44 44 44 45 45 45 45 46
35 35 35 36 36 35 35 35 36 35 35 35 36 37 38 37 37 36 36 36 37 38 38 39 40 40 40 40 41 41 42 43 43 44 45 45 45 45 44 44 44 44 43 43 42 43 43 42 43 42 42 43 42 42 41 42 42 42 42 42 42 41 38 39 39 40 40 40 41 40 41 42 42 42 43 43 43 43 43 43 43 44 44 45 46
35 36 35 35 35 35 36 35 35 35 36 36 35 35 36 36 35 36 35 36 36 37 37 38 39 38 38 38 40 40 40 41 43 44 44 44 44 44 43 43 43 43 42 42 42 42 42 43 42 42 42 42 42 42 41 40 40 40 40 41 39 37 37 38 39 40 39 40 40 40 40 40 41 41 42 42 43 43 42 43 43 44 44 45 46
37 36 36 36 35 35 35 34 35 35 35 35 34 35 35 33 34 34 35 35 36 36 37 37 37 37 37 37 39 38 39 40 41 41 42 43 43 42 42 42 42 43 42 42 42 41 42 41 40 40 40 40 40 39 40 39 39 39 39 38 37 36 37 37 38 36 37 37 37 37 38 39 40 41 41 42 42 42 43 43 44 44 45 45 46